Time,TemperatureF,DewpointF,PressureIn,WindDirection,WindDirectionDegrees,WindSpeedMPH,WindSpeedGustMPH,Humidity,HourlyPrecipIn,Conditions,Clouds,dailyrainin,SoftwareType,DateUTC
2013-03-02 00:09:00,21.5,12.0,30.34,NNE,21,0.0,-999.0,68,-99.99,,,0.00,weatherlink.com 1.10,2013-03-02 05:09:00,
2013-03-02 00:24:00,21.4,12.0,30.34,NNE,22,0.0,-999.0,68,-99.99,,,0.00,weatherlink.com 1.10,2013-03-02 05:24:00,
2013-03-02 00:39:00,21.3,13.0,30.34,NE,36,1.0,-999.0,69,-99.99,,,0.00,weatherlink.com 1.10,2013-03-02 05:39:00,
2013-03-02 00:54:00,20.9,12.0,30.34,NE,43,0.0,-999.0,68,-99.99,,,0.00,weatherlink.com 1.10,2013-03-02 05:54:00,
2013-03-02 01:09:00,20.6,12.0,30.34,NNE,24,1.0,-999.0,68,-99.99,,,0.00,weatherlink.com 1.10,2013-03-02 06:09:00,
2013-03-02 01:24:00,20.4,12.0,30.34,NNE,32,1.0,-999.0,69,-99.99,,,0.00,weatherlink.com 1.10,2013-03-02 06:24:00,
2013-03-02 01:39:00,20.4,12.0,30.34,NNE,23,0.0,-999.0,69,-99.99,,,0.00,weatherlink.com 1.10,2013-03-02 06:39:00,
2013-03-02 01:55:00,20.4,12.0,30.34,NNE,17,1.0,-999.0,71,-99.99,,,0.00,weatherlink.com 1.10,2013-03-02 06:55:00,
2013-03-02 02:10:00,20.4,13.0,30.34,NE,42,2.0,-999.0,72,-99.99,,,0.00,weatherlink.com 1.10,2013-03-02 07:10:00,
2013-03-02 02:25:00,20.4,13.0,30.34,NNE,28,1.0,-999.0,73,-99.99,,,0.00,weatherlink.com 1.10,2013-03-02 07:25:00,
2013-03-02 02:40:00,20.5,13.0,30.33,NE,34,0.0,-999.0,74,-99.99,,,0.00,weatherlink.com 1.10,2013-03-02 07:40:00,
2013-03-02 02:55:00,20.7,13.0,30.33,North,11,0.0,-999.0,73,-99.99,,,0.00,weatherlink.com 1.10,2013-03-02 07:55:00,
2013-03-02 03:10:00,20.7,14.0,30.33,NE,47,0.0,-999.0,74,-99.99,,,0.00,weatherlink.com 1.10,2013-03-02 08:10:00,
2013-03-02 03:25:00,20.8,14.0,30.33,NNE,33,2.0,-999.0,74,-99.99,,,0.00,weatherlink.com 1.10,2013-03-02 08:25:00,
2013-03-02 03:40:00,20.7,14.0,30.33,NE,46,0.0,-999.0,74,-99.99,,,0.00,weatherlink.com 1.10,2013-03-02 08:40:00,
2013-03-02 03:55:00,20.6,14.0,30.32,NE,46,0.0,-999.0,75,-99.99,,,0.00,weatherlink.com 1.10,2013-03-02 08:55:00,
2013-03-02 04:10:00,20.5,14.0,30.32,NNE,21,0.0,-999.0,76,-99.99,,,0.00,weatherlink.com 1.10,2013-03-02 09:10:00,
2013-03-02 04:25:00,20.5,14.0,30.32,NE,51,0.0,-999.0,76,-99.99,,,0.00,weatherlink.com 1.10,2013-03-02 09:25:00,
2013-03-02 04:40:00,20.4,14.0,30.32,NE,45,4.0,-999.0,76,-99.99,,,0.00,weatherlink.com 1.10,2013-03-02 09:40:00,
2013-03-02 04:54:00,20.3,14.0,30.32,NE,52,1.0,-999.0,77,-99.99,,,0.00,weatherlink.com 1.10,2013-03-02 09:54:00,
2013-03-02 05:10:00,20.2,14.0,30.32,NE,51,0.0,-999.0,77,-99.99,,,0.00,weatherlink.com 1.10,2013-03-02 10:10:00,
2013-03-02 05:25:00,20.1,14.0,30.32,NE,42,2.0,-999.0,78,-99.99,,,0.00,weatherlink.com 1.10,2013-03-02 10:25:00,
2013-03-02 05:40:00,20.0,15.0,30.33,North,360,2.0,-999.0,79,-99.99,,,0.00,weatherlink.com 1.10,2013-03-02 10:40:00,
2013-03-02 05:55:00,19.9,15.0,30.32,NE,34,1.0,-999.0,81,-99.99,,,0.00,weatherlink.com 1.10,2013-03-02 10:55:00,
2013-03-02 06:10:00,19.8,15.0,30.32,NE,39,0.0,-999.0,81,-99.99,,,0.00,weatherlink.com 1.10,2013-03-02 11:10:00,
2013-03-02 06:25:00,19.8,14.0,30.32,NE,42,1.0,-999.0,79,-99.99,,,0.00,weatherlink.com 1.10,2013-03-02 11:25:00,
2013-03-02 06:40:00,19.8,14.0,30.33,NNE,13,1.0,-999.0,79,-99.99,,,0.00,weatherlink.com 1.10,2013-03-02 11:40:00,
2013-03-02 06:55:00,19.8,15.0,30.33,NNE,24,1.0,-999.0,80,-99.99,,,0.00,weatherlink.com 1.10,2013-03-02 11:55:00,
2013-03-02 07:10:00,19.7,15.0,30.33,NE,40,0.0,-999.0,81,-99.99,,,0.00,weatherlink.com 1.10,2013-03-02 12:10:00,
2013-03-02 07:25:00,19.7,14.0,30.33,NE,42,0.0,-999.0,79,-99.99,,,0.00,weatherlink.com 1.10,2013-03-02 12:25:00,
2013-03-02 07:40:00,19.7,15.0,30.33,NE,38,2.0,-999.0,80,-99.99,,,0.00,weatherlink.com 1.10,2013-03-02 12:40:00,
2013-03-02 07:55:00,19.9,15.0,30.33,NE,56,2.0,-999.0,81,-99.99,,,0.00,weatherlink.com 1.10,2013-03-02 12:55:00,
2013-03-02 08:10:00,20.1,15.0,30.33,NE,40,5.0,-999.0,81,-99.99,,,0.00,weatherlink.com 1.10,2013-03-02 13:10:00,
2013-03-02 08:25:00,20.2,16.0,30.33,NE,34,0.0,-999.0,82,-99.99,,,0.00,weatherlink.com 1.10,2013-03-02 13:25:00,
2013-03-02 08:40:00,20.3,16.0,30.33,NNE,33,0.0,-999.0,82,-99.99,,,0.00,weatherlink.com 1.10,2013-03-02 13:40:00,
2013-03-02 08:54:00,20.3,16.0,30.33,NE,54,0.0,-999.0,83,-99.99,,,0.00,weatherlink.com 1.10,2013-03-02 13:54:00,
2013-03-02 09:10:00,20.4,16.0,30.33,NE,56,1.0,-999.0,84,-99.99,,,0.00,weatherlink.com 1.10,2013-03-02 14:10:00,
2013-03-02 09:25:00,20.3,16.0,30.33,NE,41,7.0,-999.0,82,-99.99,,,0.00,weatherlink.com 1.10,2013-03-02 14:25:00,
2013-03-02 09:40:00,20.3,15.0,30.33,North,355,0.0,-999.0,80,-99.99,,,0.00,weatherlink.com 1.10,2013-03-02 14:40:00,
2013-03-02 09:55:00,20.4,15.0,30.33,NNE,26,8.0,-999.0,80,-99.99,,,0.00,weatherlink.com 1.10,2013-03-02 14:55:00,
2013-03-02 10:10:00,20.6,15.0,30.33,NE,45,3.0,-999.0,79,-99.99,,,0.00,weatherlink.com 1.10,2013-03-02 15:10:00,
2013-03-02 10:25:00,20.9,15.0,30.32,NE,41,2.0,-999.0,79,-99.99,,,0.00,weatherlink.com 1.10,2013-03-02 15:25:00,
2013-03-02 10:40:00,21.3,16.0,30.32,NE,44,0.0,-999.0,80,-99.99,,,0.00,weatherlink.com 1.10,2013-03-02 15:40:00,
2013-03-02 10:55:00,21.0,15.0,30.32,NNE,17,1.0,-999.0,78,-99.99,,,0.00,weatherlink.com 1.10,2013-03-02 15:55:00,
2013-03-02 11:10:00,21.3,15.0,30.32,ENE,61,0.0,-999.0,76,-99.99,,,0.00,weatherlink.com 1.10,2013-03-02 16:10:00,
2013-03-02 11:25:00,21.4,16.0,30.32,NNE,28,0.0,-999.0,78,-99.99,,,0.00,weatherlink.com 1.10,2013-03-02 16:25:00,
2013-03-02 11:40:00,21.4,15.0,30.32,NE,46,9.0,-999.0,76,-99.99,,,0.00,weatherlink.com 1.10,2013-03-02 16:40:00,
2013-03-02 11:55:00,21.3,15.0,30.32,North,9,2.0,-999.0,76,-99.99,,,0.00,weatherlink.com 1.10,2013-03-02 16:55:00,
2013-03-02 12:10:00,21.2,15.0,30.32,NE,37,2.0,-999.0,78,-99.99,,,0.00,weatherlink.com 1.10,2013-03-02 17:10:00,
2013-03-02 12:25:00,21.2,15.0,30.32,North,10,1.0,-999.0,78,-99.99,,,0.00,weatherlink.com 1.10,2013-03-02 17:25:00,
2013-03-02 12:40:00,21.1,15.0,30.32,NNE,19,1.0,-999.0,77,-99.99,,,0.00,weatherlink.com 1.10,2013-03-02 17:40:00,
2013-03-02 12:54:00,21.2,14.0,30.32,ENE,62,1.0,-999.0,74,-99.99,,,0.00,weatherlink.com 1.10,2013-03-02 17:54:00,
2013-03-02 13:10:00,21.1,14.0,30.32,North,355,1.0,-999.0,75,-99.99,,,0.00,weatherlink.com 1.10,2013-03-02 18:10:00,
2013-03-02 13:25:00,21.2,15.0,30.31,NNE,26,0.0,-999.0,76,-99.99,,,0.00,weatherlink.com 1.10,2013-03-02 18:25:00,
2013-03-02 13:40:00,21.0,15.0,30.31,North,5,0.0,-999.0,76,-99.99,,,0.00,weatherlink.com 1.10,2013-03-02 18:40:00,
2013-03-02 13:55:00,21.4,14.0,30.31,NNE,29,0.0,-999.0,73,-99.99,,,0.00,weatherlink.com 1.10,2013-03-02 18:55:00,
2013-03-02 14:10:00,20.5,13.0,30.31,ENE,63,4.0,-999.0,73,-99.99,,,0.00,weatherlink.com 1.10,2013-03-02 19:10:00,
2013-03-02 14:25:00,21.0,14.0,30.30,West,263,0.0,-999.0,73,-99.99,,,0.00,weatherlink.com 1.10,2013-03-02 19:25:00,
2013-03-02 14:40:00,20.9,13.0,30.30,NE,47,0.0,-999.0,72,-99.99,,,0.00,weatherlink.com 1.10,2013-03-02 19:40:00,
2013-03-02 14:55:00,20.6,13.0,30.30,NNE,29,1.0,-999.0,72,-99.99,,,0.00,weatherlink.com 1.10,2013-03-02 19:55:00,
2013-03-02 15:10:00,21.3,14.0,30.29,NNE,15,0.0,-999.0,72,-99.99,,,0.00,weatherlink.com 1.10,2013-03-02 20:10:00,
2013-03-02 15:25:00,21.2,14.0,30.30,NE,44,9.0,-999.0,74,-99.99,,,0.00,weatherlink.com 1.10,2013-03-02 20:25:00,
2013-03-02 15:40:00,20.6,14.0,30.29,WNW,290,1.0,-999.0,74,-99.99,,,0.00,weatherlink.com 1.10,2013-03-02 20:40:00,
2013-03-02 15:55:00,20.6,13.0,30.30,ENE,65,4.0,-999.0,71,-99.99,,,0.00,weatherlink.com 1.10,2013-03-02 20:55:00,
2013-03-02 16:10:00,20.1,13.0,30.29,NNE,13,3.0,-999.0,73,-99.99,,,0.00,weatherlink.com 1.10,2013-03-02 21:10:00,
2013-03-02 16:25:00,20.3,12.0,30.29,NNE,28,0.0,-999.0,70,-99.99,,,0.00,weatherlink.com 1.10,2013-03-02 21:25:00,
2013-03-02 16:40:00,20.0,12.0,30.29,NE,46,2.0,-999.0,71,-99.99,,,0.00,weatherlink.com 1.10,2013-03-02 21:40:00,
2013-03-02 16:54:00,19.8,12.0,30.29,NE,49,2.0,-999.0,71,-99.99,,,0.00,weatherlink.com 1.10,2013-03-02 21:54:00,
2013-03-02 17:10:00,19.6,11.0,30.29,North,5,2.0,-999.0,69,-99.99,,,0.00,weatherlink.com 1.10,2013-03-02 22:10:00,
2013-03-02 17:25:00,19.5,12.0,30.29,NNE,21,0.0,-999.0,71,-99.99,,,0.00,weatherlink.com 1.10,2013-03-02 22:25:00,
2013-03-02 17:40:00,19.2,12.0,30.29,North,360,1.0,-999.0,72,-99.99,,,0.00,weatherlink.com 1.10,2013-03-02 22:40:00,
2013-03-02 17:55:00,18.9,12.0,30.29,NNE,22,0.0,-999.0,73,-99.99,,,0.00,weatherlink.com 1.10,2013-03-02 22:55:00,
2013-03-02 18:10:00,18.5,11.0,30.29,NE,54,0.0,-999.0,73,-99.99,,,0.00,weatherlink.com 1.10,2013-03-02 23:10:00,
2013-03-02 18:25:00,18.1,11.0,30.29,NW,317,0.0,-999.0,72,-99.99,,,0.00,weatherlink.com 1.10,2013-03-02 23:25:00,
2013-03-02 18:40:00,17.3,10.0,30.29,NW,317,0.0,-999.0,74,-99.99,,,0.00,weatherlink.com 1.10,2013-03-02 23:40:00,
2013-03-02 18:55:00,16.4,10.0,30.29,NW,317,0.0,-999.0,76,-99.99,,,0.00,weatherlink.com 1.10,2013-03-02 23:55:00,
2013-03-02 19:10:00,15.4,10.0,30.29,NW,317,0.0,-999.0,78,-99.99,,,0.00,weatherlink.com 1.10,2013-03-03 00:10:00,
2013-03-02 19:25:00,14.8,10.0,30.29,NW,317,0.0,-999.0,80,-99.99,,,0.00,weatherlink.com 1.10,2013-03-03 00:25:00,
2013-03-02 19:40:00,14.0,9.0,30.29,NW,317,0.0,-999.0,80,-99.99,,,0.00,weatherlink.com 1.10,2013-03-03 00:40:00,
2013-03-02 19:55:00,13.1,8.0,30.29,NW,317,0.0,-999.0,81,-99.99,,,0.00,weatherlink.com 1.10,2013-03-03 00:55:00,
2013-03-02 20:10:00,12.7,8.0,30.28,NW,317,0.0,-999.0,82,-99.99,,,0.00,weatherlink.com 1.10,2013-03-03 01:10:00,
2013-03-02 20:25:00,12.4,8.0,30.28,NW,317,0.0,-999.0,81,-99.99,,,0.00,weatherlink.com 1.10,2013-03-03 01:25:00,
2013-03-02 20:40:00,11.9,7.0,30.27,NW,317,0.0,-999.0,82,-99.99,,,0.00,weatherlink.com 1.10,2013-03-03 01:40:00,
2013-03-02 20:54:00,11.4,7.0,30.27,NW,317,0.0,-999.0,82,-99.99,,,0.00,weatherlink.com 1.10,2013-03-03 01:54:00,
2013-03-02 21:10:00,10.7,7.0,30.27,NW,317,0.0,-999.0,83,-99.99,,,0.00,weatherlink.com 1.10,2013-03-03 02:10:00,
2013-03-02 21:25:00,10.0,6.0,30.27,NW,317,0.0,-999.0,83,-99.99,,,0.00,weatherlink.com 1.10,2013-03-03 02:25:00,
2013-03-02 21:40:00,9.2,5.0,30.27,NW,317,0.0,-999.0,84,-99.99,,,0.00,weatherlink.com 1.10,2013-03-03 02:40:00,
2013-03-02 21:55:00,8.4,5.0,30.27,NW,317,0.0,-999.0,85,-99.99,,,0.00,weatherlink.com 1.10,2013-03-03 02:55:00,
2013-03-02 22:10:00,7.8,5.0,30.27,NW,317,0.0,-999.0,86,-99.99,,,0.00,weatherlink.com 1.10,2013-03-03 03:10:00,
2013-03-02 22:25:00,7.4,4.0,30.27,NW,317,0.0,-999.0,86,-99.99,,,0.00,weatherlink.com 1.10,2013-03-03 03:25:00,
2013-03-02 22:40:00,7.6,5.0,30.26,NW,317,0.0,-999.0,87,-99.99,,,0.00,weatherlink.com 1.10,2013-03-03 03:40:00,
2013-03-02 22:55:00,8.0,5.0,30.26,NW,317,0.0,-999.0,87,-99.99,,,0.00,weatherlink.com 1.10,2013-03-03 03:55:00,
2013-03-02 23:10:00,8.2,5.0,30.25,NW,317,0.0,-999.0,87,-99.99,,,0.00,weatherlink.com 1.10,2013-03-03 04:10:00,
2013-03-02 23:25:00,8.7,6.0,30.25,NW,317,0.0,-999.0,87,-99.99,,,0.00,weatherlink.com 1.10,2013-03-03 04:25:00,
2013-03-02 23:40:00,9.3,6.0,30.24,NW,317,0.0,-999.0,87,-99.99,,,0.00,weatherlink.com 1.10,2013-03-03 04:40:00,
2013-03-02 23:55:00,9.6,6.0,30.24,NW,317,0.0,-999.0,86,-99.99,,,0.00,weatherlink.com 1.10,2013-03-03 04:55:00,